Regional Weather Roundup
Issued by NWS

Home | Current Version | Previous Version | Graphics & Text | Print | Product List | Glossary On
Versions: 1 2 3 4 5 6 7 8 9 10 11 12 13 14 15 16 17 18 19 20 21 22 23 24 25 26 27 28 29 30 31 32 33 34 35 36 37 38 39 40 41 42 43 44 45 46 47 48 49 50
000
ASUS45 KABQ 181401
RWRNM
WEATHER ROUNDUP FOR NEW MEXICO
NATIONAL WEATHER SERVICE ALBUQUERQUE NM
700 AM MST THU DEC 18 2014

NOTE: "FAIR" MEANS FEW OR NO CLOUDS BELOW 12,000 FEET AGL WITH NO
       SIGNIFICANT WEATHER OR OBSTRUCTIONS TO VISION.

      THIS PRODUCT IS RELEASED AS TWO VERSIONS.  ONE VERSION NEAR
      THE TOP OF THE HOUR CONTAINING PRELIMINARY DATA FROM ALBUQUERQUE
      AND OTHER STATIONS.  A FINAL VERSION WITH ADDITIONAL DATA IS
      ISSUED ABOUT 10 MINUTES AFTER THE HOUR.

NMZ501-503-504-510>518-181500-
NORTHWEST PLATEAU/NORTHCENTRAL MOUNTAINS

CITY           SKY/WX    TMP DP  RH WIND       PRES   REMARKS
FARMINGTON     CLOUDY    33  32  96 E5        30.11R FOG     WCI  29
SANTA FE       PTCLDY    20  17  88 N7        30.10R WCI  11
TAOS           CLOUDY    28  25  86 W5        30.11R WCI  23

$$
NMZ402-403-502-505>509-181500-
WESTCENTRAL MOUNTAINS/SOUTHWEST MOUNTAINS

CITY           SKY/WX    TMP DP  RH WIND       PRES   REMARKS
GALLUP         CLOUDY    29  26  89 CALM      30.13R
GRANTS         PTCLDY    25  22  89 W7        30.15S WCI  17
SILVER CITY    PTCLDY    34  32  93 N9        30.15S WCI  26

$$
NMZ407-409-411-412-181500-
SOUTHERN DESERTS

CITY           SKY/WX    TMP DP  RH WIND       PRES   REMARKS
DEMING         CLOUDY    39  38  96 CALM      30.15R
HOLLOMAN AFB   PTCLDY    37  32  83 SE6       30.12S WCI  32
ALAMOGORDO     PTCLDY    36  32  87 SE6       30.13S WCI  31
T OR C         MOCLDY    36  28  73 W3        30.13R

$$
NMZ519>523-181500-
CENTRAL VALLEYS/CENTRAL HIGHLANDS

CITY           SKY/WX    TMP DP  RH WIND       PRES   REMARKS
ALBUQUERQUE    PTCLDY    29  26  89 CALM      30.15R
DOUBLE EAGLE   PTCLDY    25  21  86 SW6       30.14R WCI  18
MORIARTY ARPT  FAIR      25  22  87 W9        30.11R WCI  16
CLINES CORNERS CLEAR     24  21  88 W14       30.06R WCI  12
BELEN          CLOUDY    31  28  87 NW6       30.13S WCI  25
SOCORRO        NOT AVBL

$$
NMZ524>526-539-540-181500-
SOUTHCENTRAL MOUNTAINS

CITY           SKY/WX    TMP DP  RH WIND       PRES   REMARKS
RUIDOSO        CLEAR     28  25  86 N5        30.13R WCI  23

$$
NMZ527>531-181500-
NORTHEAST HIGHLANDS/NORTHEAST PLAINS

CITY           SKY/WX    TMP DP  RH WIND       PRES   REMARKS
LAS VEGAS      PTCLDY    26  19  74 N3        30.04R
RATON          CLEAR     20  17  88 CALM      30.03R
CLAYTON        CLEAR     27  22  81 NW8       30.04R WCI  19

$$
NMZ532>537-181500-
EASTCENTRAL PLAINS

CITY           SKY/WX    TMP DP  RH WIND       PRES   REMARKS
TUCUMCARI      FOG       29  27  92 CALM      30.06S VSB 1/4
CANNON AFB     CLEAR     32  26  78 NW12      30.07R WCI  23
CLOVIS AIRPORT CLEAR     30  23  74 NW7       30.08R WCI  23

$$
NMZ028-029-538-181500-
SOUTHEAST PLAINS

CITY           SKY/WX    TMP DP  RH WIND       PRES   REMARKS
ROSWELL        CLEAR     30  25  81 SW8       30.11R WCI  22
ARTESIA        CLEAR     32  28  86 NW10      30.13R WCI  24
CARLSBAD       PTCLDY    50  35  56 W8        30.10R
HOBBS          CLEAR     36  32  87 NW5       30.11R WCI  32


$$



USA.gov is the U.S. government's official web portal to all federal, state and local government web resources and services.